• In Deutschland
  • Länderverzeichnis
  • Für 7 Tage
  • Wassertemperatur
  • Satellitenkarten
  • Wetterkarte
  • Widgets
  • user-avatar
    Anmelden

    Stündliche Wetter Melbourne

    Heute, 28 Juni, Mittwoch

    Zeit Temperatur Niederschläge Wind Luftdruck Luftfeuchtigkeit
    00:00 +7°C° 0 mm 2 m/S 766 mmHg 92%
    01:00 +7°C° 0 mm 2 m/S 766 mmHg 92%
    02:00 +7°C° 0 mm 2 m/S 766 mmHg 91%
    03:00 +8°C° 0 mm 2 m/S 766 mmHg 91%
    04:00 +8°C° 0 mm 2 m/S 765 mmHg 89%
    05:00 +8°C° 0 mm 2 m/S 766 mmHg 89%
    06:00 +8°C° 0 mm 2 m/S 766 mmHg 90%
    07:00 +8°C° 0 mm 2 m/S 766 mmHg 90%
    08:00 +9°C° 0 mm 2 m/S 766 mmHg 86%
    09:00 +10°C° 0 mm 2 m/S 766 mmHg 83%
    10:00 +12°C° 0 mm 2 m/S 766 mmHg 77%
    11:00 +13°C° 0 mm 2 m/S 766 mmHg 73%
    12:00 +14°C° 0 mm 2 m/S 765 mmHg 68%
    13:00 +15°C° 0 mm 2 m/S 765 mmHg 63%
    14:00 +15°C° 0,1 mm 1 m/S 765 mmHg 66%
    15:00 +15°C° 0,1 mm 1 m/S 765 mmHg 68%
    16:00 +14°C° 0 mm 1 m/S 765 mmHg 71%
    17:00 +12°C° 0 mm 2 m/S 765 mmHg 78%
    18:00 +10°C° 0 mm 2 m/S 765 mmHg 84%
    19:00 +8°C° 0 mm 2 m/S 765 mmHg 91%
    20:00 +8°C° 0 mm 2 m/S 765 mmHg 92%
    21:00 +8°C° 0 mm 2 m/S 765 mmHg 93%
    22:00 +7°C° 0 mm 2 m/S 765 mmHg 93%
    23:00 +7°C° 0 mm 2 m/S 765 mmHg 93%

    Morgen, 29 Juni, Donnerstag

    Zeit Temperatur Niederschläge Wind Luftdruck Luftfeuchtigkeit
    00:00 +7°C° 0 mm 2 m/S 765 mmHg 93%
    01:00 +7°C° 0 mm 2 m/S 765 mmHg 94%
    02:00 +7°C° 0 mm 2 m/S 765 mmHg 94%
    03:00 +7°C° 0 mm 2 m/S 765 mmHg 94%
    04:00 +6°C° 0 mm 2 m/S 765 mmHg 94%
    05:00 +6°C° 0 mm 2 m/S 765 mmHg 94%
    06:00 +6°C° 0 mm 2 m/S 765 mmHg 94%
    07:00 +6°C° 0 mm 2 m/S 765 mmHg 94%
    08:00 +8°C° 0 mm 2 m/S 765 mmHg 90%
    09:00 +9°C° 0 mm 2 m/S 765 mmHg 86%
    10:00 +10°C° 0 mm 3 m/S 765 mmHg 82%
    11:00 +10°C° 0,1 mm 3 m/S 765 mmHg 81%
    12:00 +11°C° 0,1 mm 3 m/S 765 mmHg 80%
    13:00 +11°C° 0,1 mm 3 m/S 764 mmHg 80%
    14:00 +11°C° 0,1 mm 3 m/S 764 mmHg 76%
    15:00 +11°C° 0,1 mm 3 m/S 764 mmHg 73%
    16:00 +12°C° 0,1 mm 3 m/S 764 mmHg 70%
    17:00 +11°C° 0,6 mm 3 m/S 765 mmHg 77%
    18:00 +10°C° 0,6 mm 4 m/S 766 mmHg 84%
    19:00 +8°C° 0,6 mm 4 m/S 766 mmHg 92%
    20:00 +7°C° 0 mm 4 m/S 767 mmHg 90%
    21:00 +7°C° 0 mm 4 m/S 768 mmHg 88%
    22:00 +8°C° 0 mm 3 m/S 768 mmHg 86%
    23:00 +7°C° 0 mm 3 m/S 769 mmHg 84%

    übermorgen, 30 Juni, Freitag

    Zeit Temperatur Niederschläge Wind Luftdruck Luftfeuchtigkeit
    00:00 +7°C° 0 mm 3 m/S 769 mmHg 83%
    01:00 +7°C° 0 mm 3 m/S 769 mmHg 81%
    02:00 +7°C° 0 mm 3 m/S 769 mmHg 82%
    03:00 +7°C° 0 mm 3 m/S 769 mmHg 82%
    04:00 +5°C° 0 mm 3 m/S 769 mmHg 82%
    05:00 +6°C° 0 mm 2 m/S 770 mmHg 82%
    06:00 +6°C° 0 mm 2 m/S 770 mmHg 83%
    07:00 +6°C° 0 mm 2 m/S 771 mmHg 83%
    08:00 +7°C° 0 mm 2 m/S 771 mmHg 79%
    09:00 +8°C° 0 mm 2 m/S 772 mmHg 75%
    10:00 +9°C° 0 mm 2 m/S 772 mmHg 70%
    11:00 +10°C° 0 mm 2 m/S 772 mmHg 65%
    12:00 +10°C° 0 mm 2 m/S 771 mmHg 61%
    13:00 +12°C° 0 mm 2 m/S 771 mmHg 56%
    14:00 +12°C° 0 mm 2 m/S 771 mmHg 57%
    15:00 +12°C° 0 mm 2 m/S 771 mmHg 58%
    16:00 +10°C° 0 mm 2 m/S 771 mmHg 59%
    17:00 +9°C° 0 mm 1 m/S 771 mmHg 69%
    18:00 +7°C° 0 mm 1 m/S 772 mmHg 80%
    19:00 +5°C° 0 mm 1 m/S 772 mmHg 90%
    20:00 +4°C° 0 mm 1 m/S 772 mmHg 91%
    21:00 +2°C° 0 mm 0 m/S 772 mmHg 92%
    22:00 +1°C° 0 mm 0 m/S 772 mmHg 92%
    23:00 +2°C° 0 mm 0 m/S 772 mmHg 92%

    1 Juli, Samstag

    Zeit Temperatur Niederschläge Wind Luftdruck Luftfeuchtigkeit
    00:00 +3°C° 0 mm 1 m/S 772 mmHg 92%
    01:00 +3°C° 0 mm 1 m/S 771 mmHg 92%
    02:00 +4°C° 0 mm 1 m/S 771 mmHg 92%
    03:00 +4°C° 0 mm 1 m/S 771 mmHg 91%
    04:00 +4°C° 0 mm 1 m/S 771 mmHg 91%
    05:00 +4°C° 0 mm 1 m/S 771 mmHg 91%
    06:00 +4°C° 0 mm 1 m/S 771 mmHg 90%
    07:00 +3°C° 0 mm 2 m/S 771 mmHg 90%
    08:00 +4°C° 0 mm 2 m/S 771 mmHg 82%
    09:00 +6°C° 0 mm 2 m/S 771 mmHg 74%
    10:00 +7°C° 0 mm 2 m/S 771 mmHg 65%
    11:00 +9°C° 0 mm 2 m/S 771 mmHg 60%
    12:00 +10°C° 0 mm 2 m/S 770 mmHg 54%
    13:00 +13°C° 0 mm 2 m/S 769 mmHg 48%
    14:00 +12°C° 0 mm 2 m/S 769 mmHg 49%
    15:00 +12°C° 0 mm 2 m/S 769 mmHg 51%
    16:00 +12°C° 0 mm 2 m/S 768 mmHg 52%
    17:00 +9°C° 0 mm 2 m/S 768 mmHg 59%
    18:00 +8°C° 0 mm 3 m/S 768 mmHg 66%
    19:00 +5°C° 0 mm 3 m/S 768 mmHg 73%
    20:00 +5°C° 0 mm 3 m/S 768 mmHg 73%
    21:00 +4°C° 0 mm 3 m/S 768 mmHg 72%
    22:00 +4°C° 0 mm 3 m/S 768 mmHg 72%
    23:00 +4°C° 0 mm 3 m/S 768 mmHg 72%

    2 Juli, Sonntag

    Zeit Temperatur Niederschläge Wind Luftdruck Luftfeuchtigkeit
    00:00 +4°C° 0 mm 3 m/S 768 mmHg 71%
    01:00 +4°C° 0 mm 3 m/S 767 mmHg 71%
    02:00 +4°C° 0 mm 3 m/S 767 mmHg 71%
    03:00 +4°C° 0 mm 3 m/S 767 mmHg 72%
    04:00 +3°C° 0 mm 3 m/S 766 mmHg 72%
    05:00 +3°C° 0 mm 3 m/S 766 mmHg 71%
    06:00 +3°C° 0 mm 4 m/S 766 mmHg 71%
    07:00 +3°C° 0 mm 4 m/S 766 mmHg 70%
    08:00 +5°C° 0 mm 4 m/S 766 mmHg 64%
    09:00 +6°C° 0 mm 4 m/S 766 mmHg 59%
    10:00 +7°C° 0 mm 5 m/S 766 mmHg 53%
    11:00 +10°C° 0 mm 4 m/S 765 mmHg 49%
    12:00 +11°C° 0 mm 4 m/S 764 mmHg 45%
    13:00 +12°C° 0 mm 4 m/S 763 mmHg 40%
    14:00 +12°C° 0 mm 4 m/S 762 mmHg 42%
    15:00 +12°C° 0 mm 4 m/S 761 mmHg 43%
    16:00 +11°C° 0 mm 4 m/S 761 mmHg 44%
    17:00 +10°C° 0 mm 4 m/S 761 mmHg 49%
    18:00 +8°C° 0 mm 4 m/S 761 mmHg 54%
    19:00 +7°C° 0 mm 4 m/S 760 mmHg 59%
    20:00 +7°C° 0 mm 4 m/S 760 mmHg 59%
    21:00 +7°C° 0 mm 5 m/S 760 mmHg 59%
    22:00 +7°C° 0 mm 5 m/S 760 mmHg 59%
    23:00 +7°C° 0 mm 5 m/S 759 mmHg 61%

    3 Juli, Montag

    Zeit Temperatur Niederschläge Wind Luftdruck Luftfeuchtigkeit
    00:00 +7°C° 0 mm 4 m/S 758 mmHg 63%
    01:00 +7°C° 0 mm 4 m/S 757 mmHg 65%
    02:00 +8°C° 0 mm 4 m/S 756 mmHg 67%
    03:00 +8°C° 0 mm 4 m/S 755 mmHg 70%
    04:00 +8°C° 0 mm 5 m/S 755 mmHg 73%
    05:00 +8°C° 0,3 mm 5 m/S 754 mmHg 79%
    06:00 +7°C° 0,3 mm 5 m/S 754 mmHg 86%
    07:00 +7°C° 0,3 mm 5 m/S 753 mmHg 92%
    08:00 +8°C° 0,3 mm 5 m/S 753 mmHg 90%
    09:00 +8°C° 0,3 mm 5 m/S 752 mmHg 89%
    10:00 +8°C° 0,3 mm 5 m/S 752 mmHg 87%
    11:00 +9°C° 0,3 mm 5 m/S 752 mmHg 86%
    12:00 +9°C° 0,3 mm 5 m/S 751 mmHg 84%
    13:00 +9°C° 0,3 mm 5 m/S 751 mmHg 83%
    14:00 +9°C° 0 mm 5 m/S 751 mmHg 78%
    15:00 +9°C° 0 mm 5 m/S 751 mmHg 73%
    16:00 +10°C° 0 mm 5 m/S 751 mmHg 69%
    17:00 +9°C° 0 mm 5 m/S 751 mmHg 70%
    18:00 +8°C° 0 mm 4 m/S 752 mmHg 71%
    19:00 +8°C° 0 mm 4 m/S 752 mmHg 72%
    20:00 +8°C° 0 mm 4 m/S 752 mmHg 74%
    21:00 +7°C° 0 mm 4 m/S 752 mmHg 75%
    22:00 +7°C° 0 mm 4 m/S 752 mmHg 76%
    23:00 +7°C° 0 mm 4 m/S 752 mmHg 79%
    Mehr zeigen